Regional Weather Roundup
Issued by NWS

Home | Current Version | Previous Version | Text Only | Print | Product List | Glossary Off
Versions: 1 2 3 4 5 6 7 8 9 10 11 12 13 14 15 16 17 18 19 20 21 22 23 24 25 26 27 28 29 30 31 32 33 34 35 36 37 38 39 40 41 42 43 44 45 46 47 48 49 50

539
ASUS43 KFSD 231810
RWRSD

WEATHER ROUNDUP FOR SOUTH DAKOTA
NATIONAL WEATHER SERVICE SIOUX FALLS SD
1200 PM CST FRI FEB 23 2018

NOTE: "FAIR" INDICATES FEW OR NO CLOUDS BELOW 12,000 FEET WITH NO
SIGNIFICANT WEATHER AND/OR OBSTRUCTIONS TO VISIBILITY.


SDZ001>005-009-010-012>017-231900-
NORTHWEST AND NORTH CENTRAL SOUTH DAKOTA

CITY           SKY/WX    TMP DP  RH WIND       PRES   REMARKS
BUFFALO          N/A      1  -6  72 SE6       30.09S WCI -10
FAITH            N/A      7  -1  70 NW8       30.20S WCI  -6
MOBRIDGE       SUNNY     12   2  64 W7        30.25R WCI   1
$$

SDZ012>016-024>037-041>051-057-063-072>074-231900-
SOUTHWEST AND SOUTH CENTRAL SOUTH DAKOTA

CITY           SKY/WX    TMP DP  RH WIND       PRES   REMARKS
RAPID CTY ARPT SUNNY      9   3  77 SE5       30.18F WCI   1
PIERRE         SUNNY      9   3  77 W9        30.29R WCI  -4
CUSTER         SUNNY     23  -1  35 SE6       30.01F WCI  16
ELLSWORTH AFB  SUNNY     14   2  60 SE6       30.16F WCI   5
PHILIP         SUNNY      9   1  70 W8        30.27S WCI  -3
PINE RIDGE     SUNNY     15   8  73 NW6       30.18F WCI   6
SPEARFISH        N/A     14   0  52 NE3       30.09F
WINNER         FAIR      13   5  70 NW10      30.28S WCI   0
$$

SDZ004>011-016>023-039-040-231900-
NORTHEAST SOUTH DAKOTA

CITY           SKY/WX    TMP DP  RH WIND       PRES   REMARKS
ABERDEEN       SUNNY     20  11  68 W6        30.27R WCI  12
WATERTOWN      CLOUDY    19  17  92 NW13      30.21R WCI   6
BROOKINGS      CLOUDY    24  19  81 NW13      30.23  WCI  12
SISSETON         N/A     21  14  74 NW13      30.23R WCI   9
$$

SDZ017-020-022-023-036>040-048>070-231900-
SOUTHEAST SOUTH DAKOTA

CITY           SKY/WX    TMP DP  RH WIND       PRES   REMARKS
SIOUX FALLS    CLOUDY    21  18  88 W10       30.27R WCI  10
HURON          SUNNY     17  11  77 NW15      30.29R WCI   2
CHAMBERLAIN    FLURRIES  14  12  94 W9        30.29S WCI   1
MITCHELL       CLOUDY    16  12  84 W9        30.31R WCI   4
YANKTON        CLOUDY    22  17  81 NW12      30.31R WCI  10
$$

ABBREVIATIONS USED IN REMARKS
   TC - TEMPERATURE IN CELSIUS
  WCI - WIND CHILL INDEX
   HX - HEAT INDEX
  VSB - VISIBILITY





USA.gov is the U.S. government's official web portal to all federal, state and local government web resources and services.